Location: Newark
(48.6461°N, 4.3644°W)
Time: 14:38:15
(UTC+00:00)

S-56A Canister/Altair - Pass Details

Date: 23 January 2020
Orbit: 633 x 2500 km, 38.9° (Epoch: 28 February)

Event Time Altitude Azimuth Distance (km) Brightness Sun altitude
Rises 19:41:50 0° 203° (SSW) 4,037 11.5 -26.3°
Reaches altitude 10° 19:47:21 10° 170° (S) 2,622 10.1 -27.2°
Enters shadow 19:47:22 10° 170° (S) 2,619 10.1 -27.3°
Maximum altitude 19:48:54 11° 155° (SSE) 2,435 - -27.5°
Drops below altitude 10° 19:50:21 10° 140° (SE) 2,405 - -27.7°
Sets 19:54:35 0° 103° (ESE) 3,083 - -28.4°
